Location: Unspecified
(49.2170°N, 0.0000°E)
Time: 19:09:02
(UTC+00:00)

Vanguard 3 - Pass Details

Date: 30 June 2019
Orbit: 507 x 3264 km, 33.4° (Epoch: 19 July)

Event Time Altitude Azimuth Distance (km) Brightness Sun altitude
Rises 06:25:12 0° 195° (SSW) 7,181 11.7 20.8°
Reaches altitude 10° 06:32:21 10° 181° (S) 6,186 11.6 21.9°
Maximum altitude 06:43:43 19° 145° (SE) 5,128 11.7 23.7°
Drops below altitude 10° 06:53:30 10° 108° (ESE) 5,279 12.6 25.3°
Sets 06:58:43 0° 92° (E) 5,845 12.8 26.2°
